Weather History for KPRC - December, 2014

Change the Weather History Date:

Tuesday, December 30, 2014

  Actual Average Record
Temperature  
Mean Temperature 36 °F 38 °F  
Max Temperature 47 °F 50 °F 69 °F (2011)
Min Temperature 25 °F 25 °F 9 °F (1990)
Degree Days  
Heating Degree Days 29    
Month to date heating degree days 694  
Since 1 July heating degree days 1351  
Cooling Degree Days 0    
Month to date cooling degree days 0  
Year to date cooling degree days 1039  
Moisture  
Dew Point 10 °F    
Average Humidity 37    
Maximum Humidity 55    
Minimum Humidity 17    
Precipitation  
Precipitation 0.00 in 0.04 in 1.66 in (1951)
Month to date precipitation 1.81 0.93  
Year to date precipitation 12.03 13.94  
Sea Level Pressure  
Sea Level Pressure 29.87 in    
Wind  
Wind Speed 9 mph (SSE)    
Max Wind Speed 21 mph    
Max Gust Speed 30 mph    
Visibility 10 miles    
Events      
T = Trace of Precipitation, MM = Missing Value Source: NWS Daily Summary

Daily Weather History Graph

Daily Weather History Graph

Search for Another Location

Airport or City:

Trip Planner

Search our weather history database for the weather conditions in past years. The results will help you decide how hot, cold, wet, or windy it might be!

Date:

Astronomy

Dec. 30, 2014 Rise Set
Actual Time 7:36 AM MST 5:28 PM MST
Civil Twilight 7:08 AM MST 5:56 PM MST
Nautical Twilight 6:36 AM MST 6:27 PM MST
Astronomical Twilight 6:06 AM MST 6:58 PM MST
Moon 1:35 PM MST (12/30) 2:11 AM MST (12/30)
Length of Visible Light 10h 47m
Length of Day
9h 52m
Waxing Gibbous, 72% of the Moon is Illuminated
Dec 30
Waxing Gibbous
Jan 4
Full
Jan 13
Last Quarter
Jan 20
New
Jan 26
First Quarter

Hourly Weather History & Observations

Time (MST) Temp. Windchill Dew Point Humidity Pressure Visibility Wind Dir Wind Speed Gust Speed Precip Events Conditions
12:53 AM 30.9 °F 22.2 °F 10.0 °F 42% 29.91 in 10.0 mi ESE 10.4 mph 17.3 mph N/A   Clear
1:53 AM 32.0 °F 26.4 °F 9.0 °F 38% 29.90 in 10.0 mi SE 5.8 mph - N/A   Clear
2:53 AM 32.0 °F 27.5 °F 9.0 °F 38% 29.88 in 10.0 mi South 4.6 mph - N/A   Clear
3:53 AM 34.0 °F 27.2 °F 8.1 °F 34% 29.87 in 10.0 mi SSW 8.1 mph - N/A   Clear
4:53 AM 32.0 °F 26.4 °F 8.1 °F 37% 29.87 in 10.0 mi SE 5.8 mph - N/A   Clear
5:53 AM 30.0 °F 21.7 °F 10.0 °F 43% 29.89 in 10.0 mi SE 9.2 mph - N/A   Clear
6:53 AM 28.0 °F 18.6 °F 10.9 °F 49% 29.91 in 10.0 mi SE 10.4 mph - N/A   Clear
7:53 AM 28.0 °F 20.0 °F 10.9 °F 49% 29.93 in 10.0 mi SSE 8.1 mph - N/A   Clear
8:53 AM 34.0 °F 28.8 °F 12.9 °F 42% 29.94 in 10.0 mi ESE 5.8 mph - N/A   Clear
9:53 AM 41.0 °F 39.0 °F 12.9 °F 32% 29.90 in 10.0 mi ENE 3.5 mph - N/A   Clear
10:53 AM 44.1 °F 39.0 °F 6.1 °F 21% 29.91 in 10.0 mi South 9.2 mph - N/A   Clear
11:53 AM 45.0 °F 39.3 °F 5.0 °F 19% 29.88 in 10.0 mi SSW 11.5 mph 20.7 mph N/A   Clear
12:53 PM 46.9 °F - 5.0 °F 18% 29.81 in 10.0 mi SW 19.6 mph 29.9 mph N/A   Clear
1:53 PM 46.0 °F 38.8 °F 7.0 °F 20% 29.80 in 10.0 mi SSW 18.4 mph 25.3 mph N/A   Clear
2:53 PM 45.0 °F 37.9 °F 7.0 °F 21% 29.79 in 10.0 mi SSW 16.1 mph - N/A   Clear
3:53 PM 44.1 °F 36.8 °F 9.0 °F 24% 29.80 in 10.0 mi SSW 16.1 mph 23.0 mph N/A   Clear
4:53 PM 41.0 °F 34.3 °F 10.9 °F 29% 29.82 in 10.0 mi South 11.5 mph - N/A   Clear
5:53 PM 39.0 °F 33.4 °F 12.0 °F 33% 29.85 in 10.0 mi SSW 8.1 mph - N/A   Clear
6:53 PM 37.0 °F 31.0 °F 12.9 °F 37% 29.87 in 10.0 mi SSW 8.1 mph - N/A   Clear
7:53 PM 28.0 °F - 12.0 °F 51% 29.92 in 10.0 mi Calm Calm - N/A   Partly Cloudy
8:53 PM 30.0 °F 26.5 °F 14.0 °F 51% 29.90 in 10.0 mi SSE 3.5 mph - N/A   Overcast
9:53 PM 32.0 °F 27.5 °F 16.0 °F 52% 29.86 in 10.0 mi South 4.6 mph - N/A   Overcast
10:53 PM 33.1 °F 30.0 °F 16.0 °F 50% 29.85 in 10.0 mi SSE 3.5 mph - N/A   Overcast
11:53 PM 32.0 °F 28.7 °F 16.0 °F 52% 29.83 in 10.0 mi SSE 3.5 mph - N/A   Overcast